"Pseudo-MPEC" for P10IjFZ

Created 2018 Jul 15 11:18:11 UT using Find_Orb

Click here for an explanation of pseudo-MPECs

 
 Astrometry: 
     P10IjFZ  C2018 07 10d;Astrometry+5Xg:prMc;p45Qy=ha_a;#hO'J[-hv9#RKjlub?8F51
     P10IjFZ  C2018 07 10WjLlAc/gJ(YmX`qmH_i;bAf,h;naT%QZqM`5\(7a0qTBWK5%0XtLF51
     P10IjFZ  C2018 07 10T:XBV)d+5DVb_kxg)9QTmNer=E\v?.*Z@L6F/+xxb`]-9$6RVD*0F51
     P10IjFZ |C2018 07 11LGU/wt='T8SD^=xD;w,V4mI9^Uo(/S8\mkxBbYvgu9*s]yJC/_62807
     P10IjFZ |C2018 07 11RNhGWwTo3.=$,_A@5redacted;A-047*KjTHTm_fE3TFD,:?/1xo807
     P10IjFZ |C2018 07 11p?5+:BO3$TIXHbDmOS:N9nh2#S0sIOb.D+JsJMvYP.'l-Nv`BJS7807
     P10IjFZ KC2018 07 128e:kvgn%PI5'vS+$*dT8E!Etw_pG8-9$^TCRYs.]b5Ypu7_F8_G8474
     P10IjFZ KC2018 07 123DQ)kjk^HmBjN[\rL,vGCv`iiy6[242Ya=$._x3J4CPtsQp7a9kR474
     P10IjFZ KC2018 07 12t#f`sF=ZcAh#HAj]:,ZD'Tuy$g`=Xlk[seeYQ/Yniv62y8SD068K474
     P10IjFZ KC2018 07 12]w%Xv)y7FW)kmBu7EL'W%sdI)UbEEC_WshW0hhnY5d!7`l7fMHkF474
     P10IjFZ |C2018 07 143;OB#uHr-YEOjV=Y$Pnh+`(RQn%y:LfU!.2P0hHqGnFl$=%\GsJS807
     P10IjFZ |C2018 07 143-+U0o\^J8G6hW$k)9OrqGwSnJW!8d,V@qN5-g:E4*4E/%NirXai807
     P10IjFZ |C2018 07 14Y8BMbS)518`_MnLA9:L'`5`h$X?GYWCa?wjtoY+-@D4hqV'NEOCP807

Station data:
(474) Mount John Observatory, Lake Tekapo  (S43.987388 E170.464960)  New
   Zealand.  Observers A. C. Gilmore, P. M. Kilmartin. Measurer P. M.
   Kilmartin. 1.0-m f/7.7 reflector + CCD.
(807) Cerro Tololo Observatory, La Serena  (S30.169136 W70.805900)  Chile.
   1.5-m Ritchey-Chrétien.
(F51) Pan-STARRS 1, Haleakala  (N20.707235 W156.255910)  US/Hawaii.
   Observers N. Primak, A. Schultz, S. Watters, J. Thiel, T. Goggia. Measurer
   PS1 Science Consortium. 1.8-m Ritchey-Chrétien + CCD.

Orbital elements:  P10IjFZ
   Perihelion 2018 Jun 23.339759 +/- 0.796 TT =  8:09:15 (JD 2458292.839759)
Epoch 2018 Jul 14.0 TT = JDT 2458313.5   Earth MOID: 0.3524   Ma: 0.0384
M   7.49203 +/- 0.23                (J2000 ecliptic)          AutoNEOCP
n   0.36263049 +/- 0.00593          Peri.  228.99643 +/- 0.9
a   1.94757041 +/- 0.0212           Node    53.60301 +/- 0.39
e   0.3033704 +/- 0.00579           Incl.    6.17456 +/- 0.06
P   2.72/992.73d           H 22.2   G  0.15   U  9.3  
q 1.35673509 +/- 0.00425    Q 2.53840574 +/- 0.0383
From 13 observations 2018 July 10-14; mean residual 0".15
Residuals in arcseconds: 
180710 F51  .23-  .13+    180711 807  .12+  .15-    180714 807  .07-  .04+    
180710 F51  .09-  .12-    180712 474  .15-  .47+    180714 807  .03-  .09-    
180710 F51  .03-  .07+    180712 474  .13+  .01-    180714 807  .00   .13-    
180711 807  .20+  .17-    180712 474  .08-  .19+    
180711 807  .15+  .06-    180712 474  .07+  .10-    

Ephemerides (geocentric):
Date (UTC) HH   RA              Dec         delta   r     elong  mag " sig PA
---- -- -- --  -------------   -----------  ------ ------ -----  --- ---- ---
2018 07 15 11  21 31 59.910   -35 53 29.30  .38689 1.3686 151.3 21.9  .95  93
2018 07 15 12  21 32 00.542   -35 53 50.71  .38688 1.3686 151.3 21.9  .98  93
2018 07 15 13  21 32 01.168   -35 54 12.09  .38687 1.3686 151.4 21.9  1.0  93
2018 07 15 14  21 32 01.789   -35 54 33.44  .38686 1.3687 151.4 21.9  1.0  93
2018 07 15 15  21 32 02.404   -35 54 54.76  .38685 1.3687 151.4 21.9  1.1  93
2018 07 15 16  21 32 03.014   -35 55 16.05  .38684 1.3688 151.4 21.9  1.1  94
2018 07 15 17  21 32 03.618   -35 55 37.31  .38683 1.3688 151.5 21.9  1.1  94
2018 07 15 18  21 32 04.216   -35 55 58.55  .38682 1.3689 151.5 21.9  1.2  94
2018 07 15 19  21 32 04.809   -35 56 19.76  .38681 1.3689 151.5 21.9  1.2  94
2018 07 15 20  21 32 05.397   -35 56 40.93  .38680 1.3690 151.5 21.9  1.2  94
2018 07 15 21  21 32 05.979   -35 57 02.08  .38679 1.3690 151.6 21.9  1.3  94
2018 07 15 22  21 32 06.555   -35 57 23.20  .38678 1.3690 151.6 21.9  1.3  94
2018 07 15 23  21 32 07.126   -35 57 44.30  .38677 1.3691 151.6 21.9  1.3  94
2018 07 16 00  21 32 07.691   -35 58 05.36  .38676 1.3691 151.6 21.9  1.4  94
2018 07 16 01  21 32 08.251   -35 58 26.39  .38675 1.3692 151.6 21.9  1.4  95
2018 07 16 02  21 32 08.806   -35 58 47.40  .38675 1.3692 151.7 21.9  1.4  95
2018 07 16 03  21 32 09.355   -35 59 08.37  .38674 1.3693 151.7 21.9  1.5  95
2018 07 16 04  21 32 09.898   -35 59 29.32  .38673 1.3693 151.7 21.9  1.5  95
2018 07 16 05  21 32 10.436   -35 59 50.23  .38672 1.3694 151.7 21.9  1.5  95
2018 07 16 06  21 32 10.969   -36 00 11.12  .38672 1.3694 151.8 21.9  1.6  95
2018 07 16 07  21 32 11.496   -36 00 31.97  .38671 1.3695 151.8 21.9  1.6  95
2018 07 16 08  21 32 12.017   -36 00 52.80  .38670 1.3695 151.8 21.9  1.7  95
2018 07 16 09  21 32 12.533   -36 01 13.60  .38669 1.3695 151.8 21.9  1.7  95
2018 07 16 10  21 32 13.044   -36 01 34.37  .38669 1.3696 151.9 21.9  1.7  95
2018 07 16 11  21 32 13.549   -36 01 55.10  .38668 1.3696 151.9 21.9  1.8  96
2018 07 16 12  21 32 14.049   -36 02 15.81  .38667 1.3697 151.9 21.9  1.8  96
2018 07 16 13  21 32 14.544   -36 02 36.49  .38667 1.3697 151.9 21.9  1.8  96
2018 07 16 14  21 32 15.033   -36 02 57.13  .38666 1.3698 151.9 21.9  1.9  96
2018 07 16 15  21 32 15.516   -36 03 17.75  .38666 1.3698 152.0 21.9  1.9  96
2018 07 16 16  21 32 15.994   -36 03 38.34  .38665 1.3699 152.0 21.9  2.0  96
2018 07 16 17  21 32 16.467   -36 03 58.89  .38665 1.3699 152.0 21.9  2.0  96
2018 07 16 18  21 32 16.934   -36 04 19.42  .38664 1.3700 152.0 21.9  2.1  96
2018 07 16 19  21 32 17.396   -36 04 39.91  .38664 1.3700 152.1 21.9  2.1  96
2018 07 16 20  21 32 17.853   -36 05 00.38  .38663 1.3701 152.1 21.9  2.1  96
2018 07 16 21  21 32 18.304   -36 05 20.81  .38663 1.3701 152.1 21.9  2.2  96
2018 07 16 22  21 32 18.750   -36 05 41.21  .38662 1.3701 152.1 21.9  2.2  96
2018 07 16 23  21 32 19.190   -36 06 01.58  .38662 1.3702 152.2 21.9  2.3  97
2018 07 17 00  21 32 19.625   -36 06 21.92  .38661 1.3702 152.2 21.9  2.3  97
2018 07 17 01  21 32 20.055   -36 06 42.23  .38661 1.3703 152.2 21.9  2.3  97
2018 07 17 02  21 32 20.479   -36 07 02.51  .38660 1.3703 152.2 21.9  2.4  97
2018 07 17 03  21 32 20.898   -36 07 22.76  .38660 1.3704 152.2 21.9  2.4  97
2018 07 17 04  21 32 21.312   -36 07 42.97  .38660 1.3704 152.3 21.9  2.5  97
2018 07 17 05  21 32 21.720   -36 08 03.16  .38659 1.3705 152.3 21.9  2.5  97
2018 07 17 06  21 32 22.123   -36 08 23.31  .38659 1.3705 152.3 21.9  2.6  97
2018 07 17 07  21 32 22.521   -36 08 43.43  .38659 1.3706 152.3 21.9  2.6  97
2018 07 17 08  21 32 22.913   -36 09 03.52  .38659 1.3706 152.4 21.9  2.7  97
2018 07 17 09  21 32 23.300   -36 09 23.58  .38658 1.3707 152.4 21.9  2.7  97
2018 07 17 10  21 32 23.682   -36 09 43.60  .38658 1.3707 152.4 21.9  2.8  97